[[{"header":{"parameterUnit":"m.s-1","parameterCategory":1,"la1":30.2991,"la2":30.254,"lo1":-89.0895,"lo2":-89.0444,"dy":0.0017,"dx":0.0017,"nx":28,"ny":28,"refTime":"2024-07-06T09:00:00:Z","depth":0,"parameterNumber":2,"parameterNumberName":"U-component_of_WINDS"},"data":[0,0,0,0,0,0,0,0,0,0,0,0,0,0,0,0,0,0,0,0,0,0,0,0,0,0,0,0,0,0,0,0,0,0,0,0,0,0,0,0,0,0,0,0,0,0,0,0,0,0,0,0,0,0,0,0,0,0,0.2628,0.2629,0,0.2714,0.2715,0.2716,0.2743,0.2743,0.2742,0.2742,0.2831,0.2833,0.2836,0,0,0,0,0,0,0,0,0,0,0,0,0,0.2484,0.2487,0.2628,0.2629,0.263,0.2714,0.2715,0.2717,0.2743,0.2743,0.2742,0.2742,0.283,0.2833,0.2836,0,0,0,0,0,0,0,0,0,0,0,0,0,0.2556,0.2488,0.2627,0.2653,0.2656,0.2714,0.2715,0.2717,0.2743,0.2743,0.2742,0.2741,0.2829,0.2833,0.2837,0.2875,0,0,0.2849,0.2851,0,0,0,0,0,0,0,0,0.2552,0.2561,0.2648,0.2652,0.2655,0.2717,0.2697,0.277,0.2743,0.271,0.2742,0.2741,0.2793,0.28,0.2818,0.2879,0.2883,0.285,0.2852,0.2854,0.2855,0,0,0,0,0,0,0,0.2547,0.2558,0.2662,0.265,0.2654,0.266,0.267,0.2711,0.2754,0.2713,0.2715,0.2725,0.2795,0.2814,0.282,0.2884,0.285,0.2853,0.2856,0.2858,0.2979,0.298,0,0,0,0,0,0,0.2538,0.2554,0.2659,0.2665,0.2601,0.2663,0.2674,0.2698,0.2754,0.2762,0.2726,0.2726,0.2807,0.2816,0.2824,0.2871,0.2854,0.2858,0.286,0.2979,0.298,0.298,0,0,0,0,0,0,0.2535,0.2547,0.2656,0.261,0.2624,0.2666,0.2693,0.27,0.2719,0.2763,0.2771,0.2737,0.2807,0.2818,0.2862,0.2875,0.286,0.2864,0.2978,0.2979,0.298,0.2967,0,0,0,0,0,0,0.253,0.2546,0.2561,0.261,0.2626,0.2693,0.2694,0.2702,0.2726,0.2727,0.2776,0.2784,0.2807,0.2855,0.2866,0.288,0.2867,0.2977,0.2978,0.298,0.2966,0.2967,0.2968,0,0,0,0,0,0.2525,0.2554,0.2562,0.2574,0.2646,0.2693,0.2703,0.2729,0.2727,0.2742,0.2771,0.2782,0.2871,0.286,0.2872,0.2887,0.2976,0.2978,0.298,0.2966,0.2967,0.2968,0,0,0,0,0,0,0.2506,0.2561,0.257,0.2615,0.2649,0.2698,0.2718,0.273,0.2766,0.2766,0.2797,0.2808,0.2849,0.2873,0.2859,0.2926,0.2924,0.2928,0.291,0.2911,0.2912,0.2905,0.287,0,0,0,0,0,0.2507,0.254,0.2587,0.2622,0.2639,0.2675,0.2697,0.2714,0.2751,0.2765,0.2797,0.2832,0.2868,0.2891,0.2926,0.297,0.298,0.2986,0.2987,0.2988,0.2991,0.3014,0.3017,0.2986,0.2986,0.2986,0,0,0.2509,0.2543,0.2563,0.2619,0.2648,0.2681,0.2687,0.2723,0.2748,0.2771,0.2814,0.2838,0.2879,0.2923,0.2943,0.2943,0.3002,0.299,0.299,0.2993,0.3016,0.3019,0.3022,0.2987,0.2987,0.2987,0,0,0.253,0.256,0.2592,0.2621,0.2663,0.2687,0.2695,0.2741,0.2758,0.2802,0.2819,0.285,0.2911,0.2939,0.2961,0.2992,0.3004,0.3003,0.3008,0.3031,0.3033,0.3035,0.3045,0.3049,0.3006,0.3006,0.3006,0,0.2528,0.258,0.2608,0.2642,0.2666,0.2688,0.272,0.2746,0.2799,0.2814,0.2814,0.289,0.292,0.2969,0.2977,0.2994,0.3003,0.2997,0.303,0.3033,0.3036,0.3046,0.3049,0.3005,0.3006,0.3006,0.3006,0,0.2574,0.2609,0.263,0.268,0.2706,0.274,0.2772,0.2795,0.281,0.2834,0.2878,0.2913,0.2956,0.2969,0.2985,0.3021,0.3019,0.3024,0.3023,0.3038,0.3048,0.3052,0.3005,0.3005,0.3005,0.3005,0,0,0.2586,0.265,0.2657,0.2679,0.2727,0.2755,0.2789,0.2831,0.2849,0.2884,0.2913,0.2964,0.2968,0.2994,0.3012,0.3032,0.3053,0.3035,0.3036,0.3036,0.3094,0.309,0.3094,0.3061,0.3062,0.3063,0.309,0,0.2613,0.2675,0.27,0.275,0.2782,0.2803,0.2833,0.2865,0.2888,0.2919,0.2944,0.2979,0.2983,0.2998,0.3018,0.3046,0.3065,0.3044,0.3088,0.3089,0.3076,0.3099,0.3095,0.312,0.3095,0.3095,0.3096,0,0.2653,0.2688,0.274,0.2784,0.2798,0.2824,0.2864,0.2893,0.293,0.2945,0.2973,0.299,0.3026,0.3022,0.3071,0.3057,0.3076,0.3092,0.3093,0.3098,0.3093,0.3104,0.3129,0.3132,0.3102,0.3102,0.3101,0,0.2655,0.2715,0.2754,0.2773,0.2825,0.2842,0.2864,0.2901,0.2924,0.2958,0.2973,0.3011,0.3032,0.3061,0.3088,0.3083,0.3135,0.3133,0.3148,0.3147,0.3158,0.3157,0.3185,0.3171,0.3171,0.317,0.317,0,0.2682,0.2713,0.2756,0.278,0.2815,0.2844,0.2878,0.2902,0.2934,0.2962,0.2983,0.3009,0.3043,0.3074,0.3095,0.3132,0.3141,0.3154,0.316,0.3152,0.3151,0.3165,0.3164,0.3172,0.3171,0.3171,0.3171,0,0.2691,0.2721,0.2764,0.2809,0.2821,0.2845,0.2884,0.2908,0.2931,0.2967,0.2977,0.3014,0.3051,0.308,0.3129,0.3143,0.3182,0.3188,0.3169,0.3172,0.3185,0.3183,0.3223,0.3229,0.3211,0.3211,0.3211,0,0.2706,0.273,0.2778,0.2798,0.2821,0.2853,0.2877,0.2906,0.2929,0.2972,0.2991,0.3029,0.3061,0.3119,0.315,0.3187,0.3194,0.3205,0.3199,0.3191,0.3193,0.3191,0.3193,0.3206,0.3206,0.3206,0.3206,0,0.2729,0.2743,0.2776,0.2813,0.284,0.2872,0.2903,0.2919,0.2953,0.2979,0.3016,0.3041,0.309,0.3127,0.3167,0.319,0.3204,0.3207,0.3213,0.3205,0.3193,0.3199,0.317,0.3206,0.3206,0.3206,0.3206,0.3206,0.2741,0.2764,0.28,0.2836,0.2863,0.2892,0.2916,0.2942,0.2974,0.3016,0.3031,0.307,0.3105,0.316,0.3183,0.3213,0.3214,0.3222,0.3224,0.3225,0.3224,0.3188,0.3221,0.3221,0.3221,0.3221,0.3221,0,0.2765,0.279,0.2822,0.2865,0.2893,0.2903,0.2939,0.2961,0.2995,0.3027,0.3058,0.31,0.3137,0.317,0.3208,0.3225,0.3232,0.3234,0.3233,0.3238,0.3221,0.3213,0.3228,0.3228,0.3228,0.3228,0.3228,0.3228,0.2781,0.2819,0.2836,0.2887,0.2912,0.2949,0.2968,0.2995,0.302,0.3067,0.3097,0.3119,0.3151,0.3191,0.3225,0.3234,0.3246,0.3246,0.3257,0.324,0.3239,0.3238,0.323,0.3249,0.3249,0.3271,0.3271,0.3271]},{"header":{"parameterUnit":"m.s-1","parameterCategory":1,"la1":30.2991,"la2":30.254,"lo1":-89.0895,"lo2":-89.0444,"dy":0.0017,"dx":0.0017,"nx":28,"ny":28,"refTime":"2024-07-06T09:00:00:Z","depth":0,"parameterNumber":3,"parameterNumberName":"V-component_of_WINDS"},"data":[0,0,0,0,0,0,0,0,0,0,0,0,0,0,0,0,0,0,0,0,0,0,0,0,0,0,0,0,0,0,0,0,0,0,0,0,0,0,0,0,0,0,0,0,0,0,0,0,0,0,0,0,0,0,0,0,0,0,4.9006,4.9006,0,4.903,4.903,4.9031,4.8951,4.8948,4.8946,4.8943,4.8966,4.8969,4.8972,0,0,0,0,0,0,0,0,0,0,0,0,0,4.8887,4.889,4.9006,4.9006,4.9006,4.903,4.903,4.9031,4.8951,4.8948,4.8945,4.8942,4.8965,4.8968,4.8972,0,0,0,0,0,0,0,0,0,0,0,0,0,4.8928,4.889,4.9006,4.897,4.8967,4.903,4.903,4.9031,4.8952,4.8948,4.8944,4.8941,4.8964,4.8968,4.8972,4.9071,0,0,4.8985,4.8987,0,0,0,0,0,0,0,0,4.8925,4.8932,4.8975,4.8972,4.8969,4.8984,4.8997,4.9044,4.8952,4.8957,4.8943,4.8939,4.8975,4.8978,4.899,4.9072,4.9073,4.8986,4.8988,4.899,4.8991,0,0,0,0,0,0,0,4.8923,4.8931,4.9015,4.8975,4.8972,4.8951,4.8953,4.9005,4.8986,4.8956,4.8951,4.8955,4.8972,4.8986,4.899,4.9073,4.8986,4.8989,4.8992,4.8994,4.9235,4.9239,0,0,0,0,0,0,4.8925,4.8929,4.9014,4.9016,4.8938,4.8956,4.8958,4.8982,4.8985,4.8982,4.8958,4.8951,4.8981,4.8985,4.8991,4.9105,4.899,4.8994,4.8997,4.9231,4.9236,4.924,0,0,0,0,0,0,4.8923,4.8933,4.9013,4.8971,4.8979,4.8962,4.899,4.8985,4.8999,4.8986,4.8982,4.8976,4.8978,4.8985,4.9051,4.9104,4.8996,4.9,4.9227,4.9233,4.9238,4.9335,0,0,0,0,0,0,4.892,4.8933,4.8971,4.8972,4.8982,4.9075,4.8993,4.8988,4.9007,4.8998,4.9002,4.8999,4.8976,4.9045,4.9055,4.9108,4.9003,4.9222,4.9229,4.9236,4.9327,4.9343,4.9357,0,0,0,0,0,4.8916,4.8998,4.8974,4.8985,4.903,4.9078,4.9084,4.9056,4.9011,4.9049,4.904,4.8999,4.9097,4.9053,4.9064,4.9118,4.9218,4.9227,4.9236,4.932,4.934,4.9357,0,0,0,0,0,0,4.9003,4.8997,4.8971,4.9055,4.9068,4.9065,4.9111,4.9078,4.9103,4.9094,4.9057,4.9059,4.9132,4.9132,4.9082,4.9213,4.915,4.9161,4.921,4.9229,4.9244,4.9242,4.9007,0,0,0,0,0,4.9032,4.9073,4.9065,4.9141,4.9149,4.9129,4.9149,4.9127,4.9138,4.9143,4.9139,4.9151,4.9184,4.9207,4.9237,4.9327,4.9325,4.9369,4.9385,4.9397,4.9407,4.9452,4.9471,4.9268,4.9268,4.9268,0,0,4.9093,4.9095,4.9123,4.9159,4.9166,4.9207,4.9134,4.9182,4.9212,4.915,4.9212,4.921,4.9221,4.9299,4.9333,4.9301,4.9463,4.9408,4.9418,4.9421,4.9463,4.9483,4.95,4.9274,4.9273,4.9272,0,0,4.9224,4.9231,4.9293,4.9302,4.9313,4.93,4.9315,4.9316,4.9313,4.9375,4.9328,4.9363,4.9422,4.9431,4.9443,4.9577,4.9539,4.9588,4.9667,4.9711,4.9727,4.9741,4.9787,4.9804,4.9597,4.9598,4.9598,0,4.9297,4.936,4.9329,4.938,4.9396,4.9342,4.9404,4.9414,4.9435,4.9447,4.9411,4.9482,4.9485,4.9564,4.9596,4.9609,4.9624,4.9586,4.9728,4.9741,4.9754,4.9797,4.9815,4.9603,4.9603,4.9602,4.9602,0,4.9448,4.9492,4.9541,4.9563,4.9585,4.9641,4.9618,4.9644,4.9619,4.9609,4.9672,4.9674,4.9703,4.972,4.9696,4.9795,4.9774,4.9734,4.9669,4.9779,4.9819,4.9836,4.9612,4.961,4.9608,4.9606,0,0,4.9635,4.9639,4.9657,4.9665,4.9674,4.9706,4.976,4.9788,4.981,4.9826,4.9868,4.9919,4.9881,4.9895,4.9872,4.9912,5.0015,4.9866,4.9865,4.9892,5.0121,5.0151,5.0171,4.999,4.9994,4.9996,5.012,0,4.9763,4.9854,4.9828,4.9919,4.9958,4.9907,4.9952,4.9962,4.9954,4.9985,4.9975,5.0011,4.9959,4.9967,5.0004,4.9995,5.006,4.9985,5.0028,5.003,5.0026,5.0192,5.0223,5.034,5.0136,5.0138,5.014,0,4.9924,4.9947,5.0042,5.0042,5.0057,5.0099,5.0122,5.0153,5.0162,5.0153,5.0169,5.0137,5.0187,5.0124,5.0192,5.0142,5.0158,5.0156,5.016,5.0161,5.0091,5.0196,5.0377,5.0394,5.0165,5.0163,5.0161,0,5.0049,5.0103,5.0166,5.0175,5.0178,5.0208,5.021,5.0216,5.0234,5.0254,5.0265,5.0291,5.0305,5.0325,5.0301,5.0257,5.0372,5.0307,5.0365,5.0365,5.039,5.0389,5.0574,5.0403,5.0403,5.0403,5.0402,0,5.0193,5.0253,5.0222,5.0261,5.0325,5.0294,5.0359,5.0355,5.036,5.0396,5.0354,5.0389,5.0355,5.0387,5.0368,5.0426,5.0433,5.0426,5.042,5.0429,5.043,5.0438,5.0429,5.0407,5.0406,5.0405,5.0405,0,5.0343,5.0325,5.039,5.0387,5.0387,5.0435,5.0432,5.0467,5.0455,5.0502,5.0511,5.0492,5.0527,5.0505,5.054,5.0527,5.0603,5.0587,5.06,5.0595,5.0654,5.0648,5.085,5.0874,5.0689,5.0691,5.0692,0,5.0436,5.048,5.0482,5.0503,5.0508,5.0544,5.0562,5.0532,5.0553,5.0566,5.0599,5.063,5.0653,5.0711,5.07,5.0726,5.0709,5.0778,5.0713,5.072,5.0708,5.0705,5.0709,5.0791,5.0793,5.0795,5.0796,0,5.0602,5.059,5.0618,5.0643,5.0666,5.0685,5.0699,5.0719,5.0689,5.0714,5.0749,5.0767,5.0803,5.0833,5.0855,5.0856,5.0821,5.0817,5.0831,5.084,5.0846,5.0842,5.0634,5.0812,5.0811,5.0809,5.0809,5.0808,5.0724,5.0761,5.0767,5.08,5.0808,5.0822,5.0854,5.0847,5.0875,5.0902,5.0883,5.0924,5.093,5.0956,5.0962,5.0992,5.0964,5.0986,5.0991,5.0996,5.1003,5.0842,5.0996,5.0996,5.0996,5.0995,5.0995,0,5.0887,5.0888,5.0918,5.094,5.0965,5.093,5.0944,5.0967,5.1004,5.1013,5.1037,5.1076,5.1106,5.1097,5.1123,5.1149,5.1134,5.1157,5.1154,5.1155,5.1028,5.1012,5.1169,5.1169,5.1169,5.1169,5.1169,5.1169,5.0974,5.1033,5.1022,5.1085,5.1085,5.1125,5.1136,5.1148,5.1155,5.1201,5.1226,5.122,5.1222,5.1247,5.1272,5.1269,5.128,5.1309,5.1299,5.1181,5.1164,5.1147,5.1132,5.1312,5.1312,5.1423,5.1424,5.1425]}]]